Location: ???????
(54.8219°N, 39.3356°E)
Time: 19:45:57
(UTC+00:00)

Daily predictions for brighter satellites

Satellite Brightness Start Highest point End
(mag) Time Altitude Azimuth Time Altitude Azimuth Time Altitude Azimuth
Meteor 1-28 Rocket 3.6 13:55:01 10° NNE 13:58:09 35° E 14:01:16 10° SSE
Cosmos 1269 Rocket 4.5 13:53:58 10° S 13:58:53 43° ESE 14:03:52 10° NE
CORIOLIS 4.2 13:54:24 10° SE 13:59:37 55° ENE 14:04:50 10° N
Cosmos 1867 3.9 13:54:33 10° WSW 13:59:58 64° NW 14:05:26 10° NE
ATLAS 2AS CENTAUR R/B 3.2 13:53:50 10° WNW 14:00:20 42° N 14:06:42 10° E
IRS-1C 4.4 13:56:36 10° SE 14:01:40 47° ENE 14:06:46 10° N
SJ-12 4.4 13:58:56 10° SE 14:02:20 32° ENE 14:05:46 10° N
ASTEX 1 4.3 13:58:26 10° N 14:03:07 50° WNW 14:07:48 10° SSW
Cosmos 2233 Rocket 4.2 13:58:44 10° SSE 14:04:48 51° E 14:10:54 10° NNE
Cosmos 2344 3.9 13:59:22 10° WNW 14:06:35 54° NNE 14:15:26 10° E
Cosmos 1725 Rocket 4.0 14:00:35 10° S 14:06:49 72° E 14:13:08 10° NNE
Cosmos 1943 Rocket 3.3 14:03:07 10° SSE 14:07:29 24° ESE 14:11:50 10° NE
Cosmos 2227 Rocket 4.1 14:05:50 10° WNW 14:09:43 18° NNW 14:13:36 10° NNE
Thor Agena Rocket 3.6 14:04:57 10° SSE 14:10:14 80° ENE 14:15:32 10° NNW
Cosmos 841 Rocket 4.4 14:06:04 10° NNW 14:10:37 29° NE 14:15:10 10° ESE
NOSS 3-3 (C) 4.4 14:05:23 10° WSW 14:10:58 55° NNW 14:17:49 10° NE
Cosmos 2061 Rocket 4.2 14:05:42 10° SSE 14:11:45 52° E 14:17:45 10° NNE
Cosmos 2082 Rocket 2.4 14:06:39 10° NNW 14:12:08 50° NE 14:17:36 10° ESE
Cosmos 2173 Rocket 4.3 14:07:50 10° SSW 14:14:01 74° WNW 14:20:10 10° N
Resurs 01 Rocket 3.5 14:15:21 11° ENE 14:16:22 11° NE 14:17:50 10° NNE
Cosmos 1782 Rocket 3.7 14:13:33 10° S 14:17:54 57° E 14:22:15 10° NNE
JB-3 4.4 14:14:02 10° NNE 14:17:54 77° WNW 14:21:41 10° SSW
ATLAS CENTAUR R/B 1.7 14:16:04 10° WSW 14:19:24 44° NW 14:22:41 10° NE
Cosmos 2278 Rocket 3.2 14:15:30 10° SSE 14:20:12 28° ESE 14:24:52 10° NE
Cosmos 1300 Rocket 3.5 14:16:12 10° S 14:20:33 65° E 14:24:54 10° NNE
Cosmos 2058 3.6 14:17:33 10° N 14:21:04 29° ENE 14:24:33 10° SE
USA 215 3.8 14:17:20 10° SE 14:23:48 63° SSW 14:30:19 10° WNW
Cosmos 921 Rocket 3.4 14:19:42 10° SSW 14:24:04 70° WNW 14:28:32 10° NNE
Cosmos 468 Rocket 4.1 14:20:06 10° NNW 14:25:15 53° NE 14:30:18 10° SE
SL-08 R/B 4.4 14:21:17 10° S 14:27:22 80° E 14:33:28 10° NNE
Cosmos 1346 Rocket 4.2 14:27:10 10° NNE 14:29:26 15° ENE 14:29:44 15° ENE
MOS 1 Rocket 3.5 14:25:22 10° SE 14:29:28 41° ENE 14:33:48 10° N
Cosmos 1975 Rocket 3.0 14:27:34 10° NNW 14:31:56 87° E 14:36:19 10° S
ARIANE 5 R/B 2.4 14:27:06 10° SSE 14:32:03 75° ENE 14:37:06 10° NNW
Cosmos 1908 Rocket 4.1 14:27:40 10° SSW 14:32:04 63° WNW 14:36:31 10° N
ATLAS 5 CENTAUR R/B 3.8 14:29:00 10° WNW 14:32:48 31° SW 14:37:21 10° S
Cosmos 1802 Rocket 4.4 14:28:40 10° SSW 14:35:05 74° WNW 14:41:32 10° N
AQUARIUS 4.1 14:31:31 10° SSE 14:35:51 58° ENE 14:40:13 10° N
Cosmos 2263 Rocket 4.1 14:32:09 10° WNW 14:36:02 19° NNW 14:39:57 10° NNE
SAR-Lupe-1 3.9 14:33:39 10° SSE 14:37:13 76° ENE 14:40:49 10° NNW
Cosmos 1844 Rocket 4.0 14:32:19 10° WSW 14:37:24 35° NW 14:42:33 10° NNE
Cosmos 1602 3.6 14:36:07 10° N 14:39:00 36° ENE 14:41:52 10° SE
CZ-2D R/B 4.0 14:37:36 10° SE 14:41:26 36° ENE 14:45:20 10° N
Iridium 4 Rocket 4.3 14:37:04 10° SSW 14:41:49 49° W 14:46:14 10° N
USA 281 4.0 14:37:43 13° E 14:42:32 30° NE 14:48:06 10° NNW
ARIANE 6 FM1 Upper Stage 3.7 14:41:43 10° W 14:45:21 33° NNW 14:47:52 17° NE
Cosmos 1862 3.6 14:42:32 10° N 14:45:54 34° ENE 14:49:14 10° SE
PSLV R/B 4.1 14:43:09 10° SE 14:46:41 30° ENE 14:50:14 10° N
SAR-Lupe-4 3.7 14:43:29 10° S 14:47:04 75° WSW 14:50:40 10° NNW
COSMOS 2406 3.4 14:41:50 10° NNW 14:47:25 52° NE 14:52:58 10° SE
Cosmos 2016 Rocket 4.4 14:42:54 10° SSW 14:49:13 69° WNW 14:55:36 10° N
SKYMED 2 4.5 14:49:23 16° NE 14:51:56 27° E 14:55:39 10° SSE
Cosmos 407 Rocket 3.6 14:47:23 10° S 14:52:24 53° ESE 14:56:54 13° NE
Okean 1 Rocket 4.3 14:51:19 10° SE 14:54:12 21° E 14:54:12 21° E
IRS-P3 4.1 14:49:19 10° SSE 14:54:39 83° ENE 15:00:01 10° NNW
SL-19 R/B 4.3 14:49:56 10° SE 14:54:51 45° ENE 14:59:51 10° N
Geosat FO 3.9 14:52:41 10° SE 14:55:33 78° NE 14:58:27 10° NNW
ISS -2.3 14:53:59 10° SSW 14:56:49 26° SSE 14:58:02 20° ESE
CZ-2D R/B 3.1 14:54:36 10° S 14:57:43 66° WSW 15:00:54 10° NNW
TIMED 4.4 14:56:01 10° SSW 15:00:17 89° SE 15:04:00 14° NNE
Cosmos 1812 2.3 14:59:39 10° SSE 15:02:25 42° E 15:02:46 40° ENE
Cosmos 540 Rocket 4.0 14:58:51 10° NNW 15:03:56 61° WSW 15:08:57 10° S
SMAP 3.9 15:00:06 10° S 15:04:39 53° W 15:09:14 10° NNW
SL-16 R/B 3.1 14:59:33 10° NNE 15:05:44 61° WNW 15:11:52 10° SW
Cosmos 2084 Rocket 3.6 15:01:40 10° WSW 15:05:50 67° NW 15:08:16 24° NE
Cosmos 44 Rocket 3.7 15:02:22 10° SSW 15:06:53 42° ESE 15:09:01 27° ENE
SPOT 1/Viking Rocket 3.5 15:02:04 10° SSE 15:07:11 66° ENE 15:12:22 10° NNW
Cosmos 2297 Rocket 4.0 15:03:57 10° NNW 15:07:25 16° N 15:09:36 13° NE
Meteor 2-3 Rocket 4.0 15:05:03 10° N 15:10:30 44° ENE 15:15:53 10° SE
SJ 16-02 2.1 15:07:19 10° SSE 15:11:04 29° ESE 15:11:19 29° E
Nadezhda 4 Rocket 3.9 15:06:15 10° N 15:12:33 66° ENE 15:18:44 10° SSE
YAOGAN 1 2.6 15:08:28 10° SE 15:12:36 52° ENE 15:16:46 10° N
Cosmos 1869 3.0 15:11:41 10° SSW 15:15:12 82° WNW 15:18:25 12° N
Aureole 3 Rocket 2.2 15:12:57 10° S 15:15:58 65° E 15:17:32 28° NNE
Cosmos 1892 Rocket 4.4 15:13:49 10° N 15:17:11 30° NE 15:17:11 30° NE
CZ-4C R/B 3.0 15:13:17 10° W 15:18:06 42° NNW 15:21:55 21° NE
Spot 4 Rocket 3.9 15:13:16 10° SSE 15:18:20 70° ENE 15:23:27 10° NNW
Cosmos 1140 Rocket 4.0 15:16:38 10° SW 15:21:44 59° WNW 15:26:38 11° NNE
RESURS DK-1 4.4 15:19:14 10° NW 15:22:42 29° WSW 15:26:10 10° S
UNK 4.4 15:21:18 10° N 15:25:50 56° WNW 15:30:21 10° SW
Resurs 1-3 3.4 15:22:29 10° SSE 15:26:45 66° ENE 15:31:03 10° N
BREEZE M DEB (TANK) 4.1 15:12:40 10° W 15:28:12 58° SSW 15:30:55 26° ESE
SL-12 R/B(2) 4.4 15:20:19 10° SSW 15:28:28 72° SE 15:35:53 20° NE
Cosmos 1428 Rocket 4.4 15:25:09 10° N 15:31:26 74° ENE 15:37:44 10° SSE
Cosmos 304 Rocket 4.2 15:27:55 10° S 15:32:08 37° ESE 15:32:08 37° ESE
Cosmos 371 Rocket 3.8 15:29:19 10° S 15:33:33 38° ESE 15:33:33 38° ESE
Cosmos 1536 Rocket 3.6 15:29:22 10° NNW 15:33:50 83° W 15:38:14 10° S
Cosmos 1400 Rocket 2.9 15:33:21 10° S 15:36:28 48° SE 15:36:28 48° SE
Okean 2 Rocket 3.0 15:37:28 10° S 15:41:47 61° E 15:42:45 48° NE
CARTOSAT-1 3.6 15:45:24 53° NE 15:45:24 53° NE 15:49:08 10° N
NOAA 6 3.9 15:41:21 10° SSE 15:46:30 79° ENE 15:51:39 10° NNW
Geosat 3.9 15:45:17 29° SE 15:47:54 83° NE 15:52:56 10° NNW
Timation 2 Rocket 4.2 15:41:42 10° SW 15:48:38 84° NW 15:53:25 21° NE
BREEZE-M DEB (TANK) 3.6 15:46:41 10° SW 15:49:34 52° SSE 15:50:40 43° ESE
COSMO-SKYMED 1 2.7 15:50:28 52° SSE 15:50:28 52° SSE 15:53:50 10° S
Cosmos 1943 Rocket 2.2 15:45:01 10° SW 15:50:39 80° WNW 15:53:47 27° NNE
Resurs 01 Rocket 2.1 15:52:46 45° NNE 15:52:46 45° NNE 15:56:10 10° N
ATLAS 2AS CENTAUR R/B 2.6 15:45:19 10° NW 15:52:09 73° NE 15:54:48 40° ESE
Cosmos 841 Rocket 3.7 15:47:40 10° NNW 15:52:56 72° WSW 15:58:08 10° SSE
ATLAS CENTAUR R/B 3.0 15:52:41 10° WNW 15:55:08 18° NNW 15:55:08 18° NNW
Cosmos 2251 Rocket 3.4 15:50:21 10° SSW 15:55:39 90° ESE 15:58:11 32° NNE
Cosmos 2227 Rocket 4.0 15:52:36 10° NNW 15:56:03 16° N 15:56:55 16° NNE
Cosmos 2082 Rocket 3.4 15:50:56 10° NW 15:56:09 41° WSW 16:01:21 10° S
Cosmos 2058 4.4 15:53:37 10° NNW 15:57:15 35° W 16:00:53 10° SSW
Cosmos 2278 Rocket 2.4 15:58:12 10° SW 16:03:51 70° NW 16:06:42 30° NNE
Cosmos 1346 Rocket 3.4 16:01:27 10° NNW 16:04:11 46° NNW 16:04:11 46° NNW
Cosmos 1833 4.3 16:01:27 10° NNW 16:07:03 53° NE 16:07:08 53° NE
Cosmos 1464 Rocket 4.1 16:00:51 10° SSW 16:07:08 77° WNW 16:13:23 10° N
Meteor 2-1 Rocket 4.2 16:05:13 10° S 16:11:07 72° E 16:15:00 23° NNE
Cosmos 2034 Rocket 3.9 16:14:46 10° S 16:20:59 87° W 16:27:20 10° N
Cosmos 2344 4.0 16:13:45 10° NW 16:21:26 72° SW 16:28:28 22° SSE
Cosmos 2263 Rocket 4.1 16:18:51 10° NNW 16:22:14 16° N 16:22:33 16° NNE
Cosmos 1814 Rocket 4.3 16:18:12 10° NNW 16:22:35 55° N 16:22:35 55° N
Cosmos 1190 Rocket 4.2 16:18:28 10° SW 16:23:44 68° WNW 16:25:14 46° N
ARIANE 6 FM1 Upper Stage 4.4 16:21:40 10° NW 16:23:54 25° NNW 16:23:54 25° NNW
USA 281 3.1 16:24:36 52° SE 16:26:21 82° ENE 16:32:59 10° NNW
Cosmos 676 Rocket 3.9 16:21:27 10° SSW 16:26:28 80° SSW 16:26:28 80° SSW
Cosmos 1656 Rocket 4.3 16:22:49 10° SSW 16:26:36 43° S 16:26:36 43° S
Cosmos 1092 Rocket 4.1 16:24:12 10° NNW 16:30:28 75° W 16:36:38 10° S
COSMOS 2406 4.4 16:26:21 10° NW 16:31:37 40° WSW 16:36:52 10° S
Okean 1 Rocket 3.8 16:27:40 10° SSW 16:31:18 50° WSW 16:31:18 50° WSW
ISS -1.0 16:29:56 10° WSW 16:30:57 18° WSW 16:30:57 18° WSW
CSL-04 Rocket 4.5 16:36:42 40° N 16:36:42 40° N 16:40:15 10° NNW
Cosmos 2026 Rocket 4.3 16:29:32 10° NNW 16:35:32 63° W 16:41:35 10° S
Cosmos 1954 Rocket 4.3 16:30:58 10° SW 16:36:12 66° WNW 16:36:42 62° NNW
Sich 1 Rocket 4.3 16:33:02 10° SSW 16:37:30 52° WNW 16:37:31 52° WNW
Cosmos 44 Rocket 4.1 16:43:30 10° WSW 16:47:38 49° WNW 16:47:38 49° WNW
SJ 16-02 2.8 16:44:56 10° SW 16:47:54 35° W 16:47:54 35° W
Cosmos 2297 Rocket 3.8 16:48:29 10° NNW 16:51:23 23° N 16:51:23 23° N
CZ-4C R/B 3.4 17:02:15 10° WNW 17:06:53 39° N 17:06:53 39° N
BREEZE-M DEB (TANK) 4.4 16:55:26 10° W 17:19:14 65° S 17:19:36 65° S
Resurs 01 Rocket 4.1 17:30:11 19° WNW 17:30:11 19° WNW 17:32:06 10° NW
Cosmos 1943 Rocket 3.9 17:30:35 10° W 17:35:14 26° NNW 17:35:17 26° NNW
Cosmos 2227 Rocket 4.4 17:37:03 10° NNW 17:38:42 17° NNW 17:38:42 17° NNW
ATLAS 2AS CENTAUR R/B 3.7 17:36:31 10° NW 17:42:14 39° WSW 17:42:14 39° WSW
Cosmos 2278 Rocket 4.1 17:44:21 10° W 17:48:33 24° NW 17:48:33 24° NW
